Houghton, MI

11:41 PM EST on December 10, 2017 (GMT -0500)
Houghton County Memorial

Weather History for KCMX - August, 2014

Change the Weather History Date:

Tuesday, August 26, 2014

  Actual Average Record
Temperature  
Mean Temperature 58 °F -  
Max Temperature 62 °F 72 °F 92 °F (1953)
Min Temperature 55 °F 56 °F 43 °F (1968)
Degree Days  
Heating Degree Days 6    
Growing Degree Days 8 (Base 50)    
Moisture  
Dew Point 49 °F    
Average Humidity 69    
Maximum Humidity 83    
Minimum Humidity 58    
Precipitation  
Precipitation 0.00 in - - ()
Sea Level Pressure  
Sea Level Pressure 30.04 in    
Wind  
Wind Speed 19 mph (West)    
Max Wind Speed 25 mph    
Max Gust Speed 34 mph    
Visibility 10 miles    
Events      
Averages and records for this station are not official NWS values.
T = Trace of Precipitation, MM = Missing Value Source: NWS Daily Summary

Daily Weather History Graph

Daily Weather History Graph

Search for Another Location

Airport or City:

Trip Planner

Search our weather history database for the weather conditions in past years. The results will help you decide how hot, cold, wet, or windy it might be!

Date:

Astronomy

Aug. 26, 2014 Rise Set
Actual Time 7:05 AM EDT 8:45 PM EDT
Civil Twilight 6:33 AM EDT 9:17 PM EDT
Nautical Twilight 5:53 AM EDT 9:56 PM EDT
Astronomical Twilight 5:10 AM EDT 10:39 PM EDT
Moon 8:12 AM EDT (8/26) 8:57 PM EDT (8/26)
Length of Visible Light 14h 44m
Length of Day
13h 40m
New Moon, 1% of the Moon is Illuminated
Aug 26
New Moon
Sep 2
First Quarter
Sep 8
Full
Sep 15
Last Quarter
Sep 24
New

Hourly Weather History & Observations

Time (EDT) Temp. Dew Point Humidity Pressure Visibility Wind Dir Wind Speed Gust Speed Precip Events Conditions
12:53 AM 62.1 °F 53.1 °F 72% 29.89 in 10.0 mi WNW 23.0 mph - N/A   Clear
1:53 AM 61.0 °F 53.1 °F 75% 29.91 in 10.0 mi West 19.6 mph - N/A   Clear
2:53 AM 59.0 °F 54.0 °F 83% 29.93 in 10.0 mi West 16.1 mph - N/A   Clear
3:53 AM 59.0 °F 53.1 °F 81% 29.94 in 10.0 mi West 19.6 mph 26.5 mph N/A   Clear
4:53 AM 57.2 °F 51.8 °F 82% 29.95 in 10.0 mi WNW 20.7 mph 31.1 mph N/A   Mostly Cloudy
5:53 AM 57.9 °F 51.1 °F 78% 29.96 in 10.0 mi WNW 18.4 mph - N/A   Overcast
6:53 AM 57.0 °F 50.0 °F 77% 29.99 in 10.0 mi West 16.1 mph - N/A   Overcast
7:53 AM 55.4 °F 48.2 °F 77% 30.02 in 10.0 mi West 19.6 mph 28.8 mph N/A   Clear
8:53 AM 57.9 °F 48.0 °F 70% 30.03 in 10.0 mi West 19.6 mph 32.2 mph N/A   Clear
9:53 AM 59.0 °F 48.0 °F 67% 30.04 in 10.0 mi West 20.7 mph 31.1 mph N/A   Partly Cloudy
10:26 AM 59.0 °F 48.0 °F 67% 30.05 in 10.0 mi West 24.2 mph 33.4 mph N/A   Mostly Cloudy
10:53 AM 59.0 °F 48.0 °F 67% 30.07 in 10.0 mi WNW 20.7 mph 33.4 mph N/A   Overcast
11:53 AM 59.0 °F 48.0 °F 67% 30.09 in 10.0 mi West 25.3 mph 34.5 mph N/A   Overcast
12:53 PM 59.0 °F 48.0 °F 67% 30.09 in 10.0 mi West 21.9 mph 31.1 mph N/A   Overcast
1:53 PM 57.9 °F 46.9 °F 67% 30.09 in 10.0 mi West 21.9 mph 31.1 mph N/A   Overcast
2:53 PM 60.1 °F 46.0 °F 60% 30.09 in 10.0 mi West 21.9 mph - N/A   Mostly Cloudy
3:53 PM 61.0 °F 46.9 °F 60% 30.08 in 10.0 mi West 15.0 mph 26.5 mph N/A   Mostly Cloudy
4:17 PM 61.0 °F 46.9 °F 60% 30.08 in 10.0 mi West 18.4 mph 27.6 mph N/A   Scattered Clouds
4:53 PM 61.0 °F 46.9 °F 60% 30.08 in 10.0 mi WNW 16.1 mph 25.3 mph N/A   Partly Cloudy
5:53 PM 62.1 °F 46.9 °F 58% 30.09 in 10.0 mi West 15.0 mph - N/A   Clear
6:53 PM 61.0 °F 46.9 °F 60% 30.09 in 10.0 mi West 15.0 mph - N/A   Clear
7:53 PM 60.1 °F 46.0 °F 60% 30.11 in 10.0 mi West 11.5 mph - N/A   Clear
8:53 PM 57.0 °F 46.9 °F 69% 30.12 in 10.0 mi West 6.9 mph - N/A   Mostly Cloudy
9:53 PM 57.9 °F 48.0 °F 70% 30.12 in 10.0 mi West 6.9 mph - N/A   Overcast
10:53 PM 57.0 °F 48.9 °F 74% 30.13 in 10.0 mi WSW 3.5 mph - N/A   Overcast
11:53 PM 57.0 °F 50.0 °F 77% 30.13 in 10.0 mi NNW 4.6 mph - N/A   Overcast